Regional Weather Roundup
Issued by NWS

Home | Current Version | Previous Version | Text Only | Print | Product List | Glossary Off
Versions: 1 2 3 4 5 6 7 8 9 10 11 12 13 14 15 16 17 18 19 20 21 22 23 24 25 26 27 28 29 30 31 32 33 34 35 36 37 38 39 40 41 42 43 44 45 46 47 48 49 50

000
ASUS43 KMKX 191800
RWRWI

WISCONSIN REGIONAL WEATHER ROUNDUP
NATIONAL WEATHER SERVICE MILWAUKEE/SULLIVAN WI
100 PM CDT SUN APR 19 2015

NOTE: "FAIR" INDICATES FEW OR NO CLOUDS BELOW 12,000 FEET WITH NO
SIGNIFICANT WEATHER AND/OR OBSTRUCTIONS TO VISIBILITY.

WIZ001-002-006>008-014>016-023>028-191900-
NORTHWEST WISCONSIN

CITY           SKY/WX    TMP DP  RH WIND       PRES   REMARKS
SUPERIOR ARPT  LGT RAIN  37  37  98 NE12      29.67F WCI  30
ASHLAND        CLOUDY    45  39  79 N8        29.67F
6HR MIN TEMP:  41; 6HR MAX TEMP:  49; 6HR PCP:  0.02;

HAYWARD        CLOUDY    52  38  58 S15       29.66F
6HR MIN TEMP:  43; 6HR MAX TEMP:  53; 6HR PCP:  0.01;

SIREN          CLOUDY    53  43  68 S12G17    29.63F
CUMBERLAND     CLOUDY    52  41  66 SE13      29.66F
RICE LAKE      CLOUDY    54  41  61 SE12      29.69F
CHETEK         CLOUDY    53  40  61 SE8       29.68F
LADYSMITH      CLOUDY    52  38  60 SE9       29.71F
EAU CLAIRE     LGT RAIN  54  42  64 SE6       29.67F
6HR MIN TEMP:  46; 6HR MAX TEMP:  54; 6HR PCP: TRACE;

MENOMONIE      CLOUDY    57  42  56 SE9       29.67F
NEW RICHMOND   CLOUDY    57  47  71 S9        29.65F
OSCEOLA        CLOUDY    56  48  75 S12       29.67F
$$

WIZ003>005-009-010-017-018-191900-
NORTH CENTRAL WISCONSIN

CITY           SKY/WX    TMP DP  RH WIND       PRES   REMARKS
MANITOWISH WTR CLOUDY    53  35  52 SE9       29.70F
ARBOR VITAE    CLOUDY    57  37  46 SE12G17   29.72F
WOODRUFF       CLOUDY    57  37  46 SE12G17   29.72F
RHINELANDER    CLOUDY    55  34  45 S12       29.73F
6HR MIN TEMP:  45; 6HR MAX TEMP:  56;

EAGLE RIVER    CLOUDY    55  31  40 S9        29.74F
LAND O LAKES   CLOUDY    54  32  42 SE9G17    29.74F
PHILLIPS       CLOUDY    46  42  85 CALM      29.70F
TOMAHAWK       CLOUDY    56  35  45 SE8       29.73F
MEDFORD        LGT RAIN  53  37  54 SE7       29.71F
MERRILL        CLOUDY    57  35  44 SE6       29.73F
$$

WIZ029-030-035-036-043>047-191900-
CENTRAL WISCONSIN

CITY           SKY/WX    TMP DP  RH WIND       PRES   REMARKS
WAUSAU         PTSUNNY   61  35  37 SE10      29.70F
6HR MIN TEMP:  45; 6HR MAX TEMP:  61;

MOSINEE        PTSUNNY   61  36  39 E13       29.73F
MARSHFIELD     CLOUDY    61  36  39 SE10      29.69F
6HR MIN TEMP:  45; 6HR MAX TEMP:  61;

STEVENS POINT  PTSUNNY   61  35  37 SE9G18    29.72F
WAUPACA        MOSUNNY   66  33  28 E15       29.74F
WAUTOMA        NOT AVBL
WISC RAPIDS    CLOUDY    67  35  30 S12       29.70F
6HR MIN TEMP:  47; 6HR MAX TEMP:  67;

CAMP DOUGLAS   NOT AVBL
$$

WIZ011>013-019>022-031-037>040-048>050-191900-
NORTHEAST WISCONSIN

CITY           SKY/WX    TMP DP  RH WIND       PRES   REMARKS
ANTIGO         PTSUNNY   56  34  43 SE13G22   29.75F
SHAWANO        MOSUNNY   60  32  34 SE12      29.79F
OCONTO         PTSUNNY   51  33  51 NE8       29.81F
STURGEON BAY   PTSUNNY   55  34  44 E9        29.83F
6HR MIN TEMP:  41; 6HR MAX TEMP:  55;

GREEN BAY      MOSUNNY   61  34  36 SE14      29.77F
6HR MIN TEMP:  47; 6HR MAX TEMP:  62;

MANITOWOC      NOT AVBL
APPLETON       MOSUNNY   61  30  31 SE18      29.76F
CLINTONVILLE   SUNNY     59  32  36 SE13      29.77F
OSHKOSH        MOSUNNY   64  35  34 SE17      29.72F
6HR MIN TEMP:  49; 6HR MAX TEMP:  64;

$$

WIZ032>034-041-042-053>061-191900-
SOUTHWEST WISCONSIN

CITY           SKY/WX    TMP DP  RH WIND       PRES   REMARKS
LA CROSSE      LGT RAIN  57  44  62 NW3       29.67F
6HR MIN TEMP:  52; 6HR MAX TEMP:  59; 6HR PCP:  0.01;

SPARTA         CLOUDY    61  37  40 SE3       29.69F
VIROQUA        CLOUDY    60  38  43 SE10      29.68F
BOSCOBEL       CLOUDY    70  42  36 SE6       29.65F
6HR MIN TEMP:  53; 6HR MAX TEMP:  70;

PRAIRIE DU CHI CLOUDY    63  39  42 CALM      29.66F
PLATTEVILLE    PTSUNNY   70  43  38 S7        29.65F
$$

WIZ056-057-062-063-064-067-068-191900-
SOUTH CENTRAL WISCONSIN

CITY           SKY/WX    TMP DP  RH WIND       PRES   REMARKS
REEDSBURG      CLOUDY    65  39  39 CALM      29.68F
BARABOO/DELLS  CLOUDY    67  37  33 SE10G16   29.68F
LONE ROCK      NOT AVBL
MINERAL POINT  CLOUDY    70  37  30 S8        29.67F
MADISON        CLOUDY    71  40  32 SE17      29.67F
6HR MIN TEMP:  50; 6HR MAX TEMP:  71;

MIDDLETON      PTSUNNY   71  37  29 SE12      29.68F
WATERTOWN      MOSUNNY   67  38  34 SE14G24   29.70F
MONROE         PTSUNNY   70  41  35 E13       29.66F
JANESVILLE     SUNNY     73  37  27 SE17G23   29.66F
$$

WIZ051-052-058>065-066-070>072-191900-
SOUTHEAST WISCONSIN

CITY           SKY/WX    TMP DP  RH WIND       PRES   REMARKS
MILWAUKEE      PTSUNNY   52  35  52 NE8       29.74F
6HR MIN TEMP:  43; 6HR MAX TEMP:  53;

WAUKESHA       PTSUNNY   61  34  36 E14       29.75F
MILWAUKEE/TIMM SUNNY     57  28  33 E8        29.76F
RACINE         MOSUNNY   57  34  41 NE8       29.75F
6HR MIN TEMP:  44; 6HR MAX TEMP:  57;

BURLINGTON     MOSUNNY   63  35  34 E13G18    29.72F
KENOSHA        SUNNY     62  35  36 E13       29.72F
6HR MIN TEMP:  45; 6HR MAX TEMP:  62;

FOND DU LAC    MOSUNNY   64  34  32 SE18G25   29.72F
6HR MIN TEMP:  48; 6HR MAX TEMP:  65;

SHEBOYGAN      MOSUNNY   58  33  39 S9        29.77F
6HR MIN TEMP:  44; 6HR MAX TEMP:  58;

WEST BEND      MOSUNNY   55  30  38 SE14      29.76F
JUNEAU         MOSUNNY   64  37  36 SE21G26   29.72F
$$

LSZ147-162-191900-
LAKE SUPERIOR

STATION/POSITION TIME  TEMP    WIND        PRES    WAVE
                       AIR SEA DIR/SP/G            HT/PER
                 (UTC) (F)     (DEG/KT/KT) (MB)    (FT/S)
DEVILS ISLAND    1700   36      60/ 14/ 15 1007.1F
PORT WING        1700   38      40/ 13/ 16 1006.1
SAXON HARBOR     1700   56     180/  8/ 13 1005.1F
$$

LMZ867-665-643>646-191900-
LAKE MICHIGAN

STATION/POSITION TIME  TEMP    WIND        PRES    WAVE
                       AIR SEA DIR/SP/G            HT/PER
                 (UTC) (F)     (DEG/KT/KT) (MB)    (FT/S)
CHAMBERS ISLAND  1700   41      40/  8/  9 1011.9F
NORTHPORT PIER   1700   40      70/ 16/ 18 1011.5F
KEWAUNEE LAKESHO 1700   43      30/ 10/ 12 1009.6F
SHEBOYGAN LAKESH 1700   47      CALM  /  2 1010.0F
PORT WASHINGTON  1720   50      60/  2/ 18 1009.5F
MILWAUKEE LAKESH 1700   46      30/  8/ 10   N/A
KENOSHA   LAKESH 1700   45      30/ 10/ 12 1008.1F
$$

TC  - TEMPERATURE IN CELSIUS
VSB - VISIBILITY IN STATUTE MILES
WCI - WIND CHILL INDEX
HX  - HEAT INDEX



USA.gov is the U.S. government's official web portal to all federal, state and local government web resources and services.